This is the latest recevied weather packets stored in our database for station/object DM1HF-13. If no packets are shown the sender has not sent any weather packets the latest 10 day(s).
| Time | Temp. | Humidity | Pressure | Rain* | Wind** | Luminosity | Snow |
|---|---|---|---|---|---|---|---|
| 1778024117 | 13.33° C | 94% | 1006.8 hPa | 0 mm | - | 0 W/m² | - |
| 1778023817 | 13.33° C | 94% | 1006.7 hPa | 0 mm | - | 0 W/m² | - |
| 1778023517 | 13.33° C | 94% | 1006.8 hPa | 2.54 mm | - | 0 W/m² | - |
| 1778023217 | 13.33° C | 94% | 1006.8 hPa | 2.79 mm | - | 0 W/m² | - |
| 1778022917 | 13.33° C | 94% | 1006.7 hPa | 0 mm | - | 0 W/m² | - |
| 1778022617 | 13.33° C | 94% | 1006.6 hPa | 0.25 mm | - | 0 W/m² | - |
| 1778022317 | 13.33° C | 93% | 1006.7 hPa | 2.03 mm | - | 0 W/m² | - |
| 1778022017 | 13.33° C | 93% | 1006.7 hPa | 3.56 mm | - | 0 W/m² | - |
| 1778021717 | 13.33° C | 93% | 1006.7 hPa | 4.83 mm | - | 0 W/m² | - |
| 1778021417 | 13.33° C | 93% | 1006.8 hPa | 2.29 mm | - | 0 W/m² | - |
| 1778021117 | 13.33° C | 93% | 1006.8 hPa | 4.83 mm | - | 0 W/m² | - |
| 1778020817 | 13.33° C | 93% | 1007 hPa | 9.14 mm | - | 0 W/m² | - |
| 1778020517 | 13.33° C | 92% | 1007 hPa | 10.41 mm | - | 0 W/m² | - |
| 1778020217 | 13.33° C | 92% | 1007.1 hPa | 6.86 mm | - | 0 W/m² | - |
| 1778019917 | 13.89° C | 91% | 1007.2 hPa | 34.54 mm | - | 0 W/m² | - |
| 1778019617 | 13.89° C | 92% | 1007.4 hPa | 13.21 mm | - | 0 W/m² | - |
| 1778019317 | 13.89° C | 91% | 1007.5 hPa | 7.11 mm | - | 0 W/m² | - |
| 1778019017 | 13.89° C | 92% | 1007.6 hPa | 7.62 mm | - | 0 W/m² | - |
| 1778018717 | 13.89° C | 92% | 1007.7 hPa | 12.19 mm | - | 0 W/m² | - |
| 1778018416 | 13.89° C | 92% | 1007.7 hPa | 4.83 mm | - | 0 W/m² | - |
| 1778018117 | 14.44° C | 91% | 1007.8 hPa | 6.6 mm | - | 0 W/m² | - |
| 1778017817 | 14.44° C | 91% | 1007.9 hPa | 5.08 mm | - | 0 W/m² | - |
| 1778017517 | 14.44° C | 90% | 1007.9 hPa | 1.27 mm | - | 0 W/m² | - |
| 1778017217 | 14.44° C | 89% | 1008 hPa | 4.83 mm | - | 0 W/m² | - |
| 1778016917 | 15° C | 88% | 1008.1 hPa | 2.54 mm | - | 0 W/m² | - |
* Rain latest hour (hover to see other rain measurements)
** Current wind speed in m/s (hover to see current wind gust speed)